Regional Weather Roundup
Issued by NWS Sioux Falls, SD

Home | Current Version | Previous Version | Text Only | Print | Product List | Glossary Off
Versions: 1 2 3 4 5 6 7 8 9 10 11 12 13 14 15 16 17 18 19 20 21 22 23 24 25 26 27 28 29 30 31 32 33 34 35 36 37 38 39 40 41 42 43 44 45 46 47 48 49 50

000
ASUS43 KFSD 241402
RWRFSD

WEATHER ROUNDUP FOR SE SOUTH DAKOTA/SW MINNESOTA/NW IOWA
NATIONAL WEATHER SERVICE SIOUX FALLS SD
900 AM CDT MON JUL 24 2017

NOTE: "FAIR" INDICATES FEW OR NO CLOUDS BELOW 12,000 FEET WITH NO
SIGNIFICANT WEATHER AND OR OBSTRUCTIONS TO VISIBILITY.


SDZ038>040-050-052>070-241500-
SOUTHEAST SOUTH DAKOTA

CITY           SKY/WX    TMP DP  RH WIND       PRES   REMARKS
BROOKINGS      SUNNY     66  60  81 S9        30.05S
CHAMBERLAIN    MOSUNNY   74  63  69 SE12      29.97S
HURON          CLOUDY    67  60  78 S13G20    30.00S
MADISON        FAIR      64  64 100 SE9       30.04F
MITCHELL       MOSUNNY   69  61  75 SE10      30.01S
SIOUX FALLS    CLOUDY    70  62  76 S9        30.04S
WINNER         FAIR      75  58  55 S12       29.98R
YANKTON        SUNNY     67  62  84 SE7       30.03F
$$

MNZ071-072-080-081-089-090-097-098-241500-
SOUTHWEST MINNESOTA

CITY           SKY/WX    TMP DP  RH WIND       PRES   REMARKS
FAIRMONT       SUNNY     65  60  84 E6        30.07F
JACKSON        SUNNY     64  57  77 CALM      30.08S
MARSHALL       HAZE      67  62  84 S8        30.05S VSB 3/4
MONTEVIDEO     SUNNY     70  61  73 S9        30.05S
PIPESTONE      SUNNY     66  63  88 S6        30.06R
REDWOOD FALLS  SUNNY     65  59  81 SE8       30.06F
WINDOM         SUNNY     66  59  77 SE6       30.07S
WORTHINGTON    SUNNY     66  60  81 SE6       30.07R
$$

IAZ001>003-012>014-020>022-031-032-NEZ013-014-SDZ071-241500-
NORTHWEST IOWA

CITY           SKY/WX    TMP DP  RH WIND       PRES   REMARKS
CHEROKEE       SUNNY     68  63  86 S3        30.06R
DENISON        SUNNY     68  63  83 E5        30.07S
ESTHERVILLE    SUNNY     64  62  93 E6        30.06S
ORANGE CITY    SUNNY     66  63  88 S5        30.06R
SHELDON        SUNNY     66  63  88 S7        30.05R
SIOUX CITY     SUNNY     67  62  84 SE6       30.05R
SPENCER        SUNNY     67  59  75 SE9       30.06F
STORM LAKE     SUNNY     66  61  82 VRB5      30.07S
$$

ABBREVIATIONS USED IN REMARKS
   TC - TEMPERATURE IN CELSIUS
  WCI - WIND CHILL INDEX
   HX - HEAT INDEX
  VSB - VISIBILITY





USA.gov is the U.S. government's official web portal to all federal, state and local government web resources and services.